SINAH 1

Last updated on Mon Sep 21 2026 00:02:45 GMT+0000 (Coordinated Universal Time)

1 28893U 05043D 26263.59057584 .00000171 00000+0 41853-4 0 9997 2 28893 98.2995 38.5474 0013944 342.5419 17.5302 14.64211529114485
UTC large
Height (km)
Speed (km/s)
/
Latitude / Longitude
Inclination (degrees)
Orbital Period (minutes)
Azimuth
Elevation
Range (km)
Doppler Factor

Next 0 passes for location: London (51.5072 / 0.1276)

No passes found over London.
SINAH 1